Total_Precipitation_Accumulation
0.71 0.76 0.76 0.71 0.73 0.78 0.77 0.73 0.67 0.70 0.78 0.89 0.95 1.09 1.24 1.43 1.61 1.76 1.77 1.76 1.80 1.78 1.72 1.80 1.90 2.01 2.12 2.14 2.10 1.97 1.83 1.79 1.70 1.53 1.33 1.19 1.32 1.37 1.31 1.25 1.16 1.07 1.00
0.70 0.73 0.75 0.67 0.62 0.65 0.66 0.68 0.59 0.56 0.62 0.71 0.84 1.05 1.16 1.25 1.30 1.38 1.46 1.49 1.51 1.56 1.55 1.52 1.60 1.72 1.86 2.00 2.07 2.01 2.01 1.91 1.81 1.76 1.58 1.34 1.23 1.30 1.34 1.41 1.33 1.14 1.05
0.85 0.90 0.83 0.70 0.66 0.65 0.61 0.64 0.59 0.56 0.61 0.66 0.80 0.95 1.01 1.06 1.10 1.12 1.22 1.30 1.31 1.29 1.34 1.31 1.33 1.43 1.57 1.69 1.77 1.85 1.97 2.00 1.99 1.89 1.79 1.59 1.36 1.37 1.40 1.39 1.40 1.47 1.26
1.10 1.06 0.90 0.77 0.70 0.64 0.60 0.56 0.57 0.59 0.62 0.69 0.84 0.94 0.95 0.91 1.00 1.03 1.08 1.12 1.09 1.04 1.07 1.08 1.13 1.17 1.24 1.36 1.50 1.71 1.90 2.01 2.07 2.05 1.95 1.72 1.54 1.52 1.50 1.47 1.52 1.57 1.53
1.05 0.94 0.80 0.68 0.58 0.53 0.56 0.53 0.54 0.61 0.64 0.71 0.76 0.87 0.92 0.90 0.93 0.99 0.98 0.93 0.92 0.91 0.87 0.78 0.80 0.86 0.87 0.95 1.01 1.29 1.54 1.76 1.89 1.96 1.92 1.78 1.57 1.47 1.37 1.40 1.52 1.66 1.73
0.93 0.81 0.64 0.56 0.53 0.49 0.48 0.45 0.44 0.47 0.53 0.58 0.64 0.80 0.91 0.82 0.93 0.92 0.85 0.78 0.75 0.79 0.76 0.69 0.67 0.71 0.62 0.59 0.63 0.85 1.14 1.34 1.53 1.71 1.76 1.63 1.50 1.42 1.47 1.47 1.46 1.49 1.52
0.63 0.58 0.47 0.41 0.40 0.39 0.38 0.38 0.41 0.43 0.47 0.52 0.56 0.73 0.83 0.91 0.85 0.70 0.74 0.74 0.74 0.77 0.79 0.80 0.73 0.69 0.76 0.67 0.62 0.69 0.77 0.89 1.04 1.30 1.53 1.52 1.61 1.53 1.44 1.38 1.38 1.40 1.40
0.52 0.51 0.44 0.39 0.36 0.36 0.34 0.36 0.44 0.45 0.44 0.49 0.55 0.59 0.67 0.80 0.74 0.59 0.63 0.63 0.74 0.81 0.84 0.93 0.94 0.87 0.84 0.92 0.87 0.88 0.85 0.78 0.84 0.76 0.98 1.36 1.49 1.54 1.49 1.51 1.58 1.51 1.39
0.30 0.35 0.34 0.29 0.31 0.34 0.34 0.39 0.43 0.44 0.48 0.50 0.55 0.58 0.64 0.68 0.64 0.57 0.60 0.67 0.79 0.82 0.79 0.90 0.94 0.88 0.92 0.97 1.10 1.16 1.09 0.94 1.04 1.05 0.97 1.08 1.22 1.27 1.37 1.46 1.50 1.41 1.36
0.10 0.14 0.19 0.19 0.23 0.29 0.38 0.44 0.42 0.41 0.47 0.48 0.47 0.47 0.52 0.55 0.60 0.50 0.61 0.73 0.78 0.80 0.81 0.87 1.01 0.93 0.90 0.88 0.97 1.11 1.09 0.97 0.85 0.88 0.86 0.76 0.70 0.81 1.01 1.17 1.42 1.51 1.43
0.02 0.04 0.07 0.11 0.17 0.26 0.33 0.32 0.33 0.36 0.40 0.41 0.44 0.44 0.45 0.52 0.63 0.64 0.69 0.72 0.76 0.83 0.92 0.97 0.95 1.02 0.86 0.83 0.84 0.85 0.94 0.92 0.90 0.95 1.01 0.91 0.80 0.76 0.80 0.88 1.07 1.27 1.37
0.01 0.01 0.02 0.04 0.07 0.12 0.20 0.23 0.26 0.30 0.32 0.32 0.33 0.34 0.38 0.49 0.57 0.59 0.61 0.66 0.74 0.76 0.81 0.82 0.78 0.86 0.72 0.64 0.59 0.66 0.73 0.78 0.86 0.99 0.98 0.94 0.93 0.88 0.85 0.87 0.93 1.01 1.10
0.00 0.00 0.00 0.01 0.02 0.06 0.12 0.17 0.21 0.27 0.30 0.28 0.26 0.29 0.33 0.37 0.45 0.48 0.48 0.48 0.51 0.55 0.53 0.62 0.62 0.61 0.56 0.50 0.54 0.59 0.62 0.64 0.75 0.82 0.84 0.81 0.82 0.87 0.87 0.87 0.89 0.92 0.89
0.00 0.00 0.00 0.01 0.01 0.03 0.06 0.13 0.21 0.24 0.23 0.24 0.26 0.28 0.32 0.35 0.35 0.37 0.41 0.41 0.40 0.45 0.44 0.46 0.46 0.45 0.47 0.48 0.50 0.55 0.61 0.66 0.70 0.72 0.71 0.74 0.75 0.82 0.88 0.86 0.84 0.89 0.92
0.00 0.00 0.00 0.01 0.02 0.02 0.02 0.06 0.13 0.16 0.15 0.18 0.24 0.28 0.33 0.36 0.32 0.28 0.29 0.36 0.42 0.47 0.53 0.47 0.43 0.44 0.47 0.53 0.55 0.54 0.58 0.63 0.64 0.63 0.65 0.66 0.66 0.71 0.76 0.76 0.77 0.79 0.78
0.00 0.00 0.01 0.01 0.02 0.02 0.02 0.04 0.06 0.06 0.08 0.09 0.11 0.15 0.15 0.14 0.15 0.15 0.18 0.23 0.30 0.37 0.52 0.58 0.60 0.65 0.67 0.66 0.64 0.55 0.51 0.53 0.59 0.64 0.64 0.64 0.65 0.64 0.68 0.71 0.71 0.74 0.73
0.00 0.00 0.01 0.01 0.02 0.02 0.03 0.06 0.06 0.04 0.03 0.03 0.04 0.05 0.08 0.09 0.11 0.14 0.15 0.19 0.22 0.28 0.47 0.63 0.65 0.63 0.60 0.58 0.55 0.48 0.43 0.41 0.44 0.53 0.61 0.68 0.69 0.69 0.71 0.75 0.73 0.68 0.66
0.01 0.01 0.01 0.02 0.03 0.03 0.05 0.08 0.14 0.17 0.13 0.05 0.03 0.03 0.05 0.07 0.09 0.13 0.20 0.26 0.25 0.27 0.41 0.50 0.51 0.51 0.45 0.38 0.33 0.29 0.29 0.28 0.29 0.34 0.40 0.48 0.63 0.73 0.81 0.82 0.82 0.82 0.79
0.01 0.02 0.02 0.05 0.05 0.06 0.07 0.12 0.15 0.15 0.12 0.07 0.05 0.04 0.05 0.05 0.06 0.08 0.14 0.21 0.22 0.21 0.23 0.24 0.24 0.26 0.27 0.24 0.21 0.21 0.22 0.23 0.24 0.26 0.28 0.33 0.42 0.55 0.71 0.81 0.83 0.87 0.85
0.01 0.01 0.02 0.05 0.06 0.05 0.06 0.08 0.10 0.10 0.08 0.07 0.07 0.07 0.08 0.09 0.10 0.10 0.11 0.14 0.17 0.16 0.14 0.14 0.14 0.15 0.16 0.17 0.17 0.19 0.22 0.23 0.22 0.24 0.28 0.33 0.41 0.46 0.51 0.59 0.70 0.74 0.68
0.01 0.01 0.02 0.03 0.06 0.06 0.06 0.05 0.06 0.08 0.07 0.06 0.06 0.05 0.07 0.12 0.14 0.12 0.11 0.12 0.14 0.15 0.15 0.14 0.14 0.14 0.15 0.19 0.21 0.21 0.21 0.22 0.23 0.24 0.26 0.32 0.40 0.47 0.50 0.51 0.53 0.56 0.59
0.01 0.01 0.02 0.05 0.07 0.07 0.07 0.06 0.07 0.08 0.07 0.06 0.07 0.07 0.08 0.12 0.14 0.15 0.15 0.15 0.16 0.18 0.19 0.20 0.20 0.21 0.21 0.22 0.25 0.26 0.26 0.25 0.25 0.25 0.27 0.28 0.31 0.36 0.41 0.46 0.49 0.50 0.50
0.01 0.02 0.02 0.04 0.06 0.06 0.07 0.07 0.07 0.08 0.09 0.08 0.08 0.08 0.09 0.12 0.14 0.15 0.17 0.17 0.18 0.19 0.21 0.26 0.28 0.28 0.28 0.29 0.29 0.29 0.29 0.29 0.30 0.31 0.33 0.33 0.31 0.31 0.33 0.35 0.36 0.38 0.41
0.04 0.05 0.05 0.07 0.07 0.07 0.08 0.09 0.09 0.09 0.09 0.09 0.10 0.12 0.13 0.14 0.15 0.14 0.14 0.15 0.17 0.19 0.21 0.23 0.26 0.28 0.31 0.33 0.34 0.34 0.34 0.34 0.31 0.31 0.36 0.40 0.39 0.37 0.36 0.36 0.37 0.37 0.40
0.07 0.08 0.08 0.09 0.09 0.10 0.09 0.10 0.10 0.10 0.11 0.12 0.13 0.14 0.15 0.16 0.16 0.16 0.16 0.17 0.18 0.18 0.20 0.21 0.22 0.24 0.29 0.36 0.38 0.37 0.41 0.41 0.35 0.32 0.32 0.36 0.38 0.39 0.40 0.42 0.43 0.46 0.50
0.08 0.08 0.08 0.09 0.10 0.12 0.13 0.14 0.14 0.15 0.16 0.15 0.15 0.16 0.16 0.17 0.17 0.18 0.18 0.19 0.19 0.19 0.20 0.23 0.25 0.25 0.27 0.33 0.39 0.44 0.44 0.41 0.40 0.41 0.36 0.35 0.38 0.41 0.45 0.49 0.52 0.56 0.59